When you browse on this site, cookies collect data to enhance your experience and personalize the content and advertising you see.
Visit our Privacy Policy to learn more. By continuing to use the site, you agree to this use of cookies and data.
  • In Romania
  • List of Countries
  • For 7 days
  • Water Temperature
  • Satellite Maps
  • Weather Map
  • Weather Widgets
  • user-avatar
    Login

    Hourly Weather Lievin

    Today, 21 April, Sunday

    Time Temperature Precipitation Wind Pressure Humidity
    00:00 +13°C° 0 mm 3 mps 761 mmHg 64%
    01:00 +12°C° 0 mm 3 mps 760 mmHg 67%
    02:00 +12°C° 0 mm 3 mps 760 mmHg 69%
    03:00 +13°C° 0 mm 2 mps 759 mmHg 72%
    04:00 +13°C° 0 mm 2 mps 759 mmHg 73%
    05:00 +12°C° 0 mm 2 mps 759 mmHg 74%
    06:00 +12°C° 0 mm 2 mps 759 mmHg 76%
    07:00 +14°C° 0 mm 2 mps 758 mmHg 70%
    08:00 +16°C° 0 mm 2 mps 758 mmHg 65%
    09:00 +18°C° 0 mm 2 mps 758 mmHg 59%
    10:00 +20°C° 0 mm 2 mps 758 mmHg 55%
    11:00 +21°C° 0 mm 2 mps 757 mmHg 51%
    12:00 +24°C° 0 mm 3 mps 757 mmHg 47%
    13:00 +24°C° 0 mm 2 mps 756 mmHg 44%
    14:00 +24°C° 0 mm 2 mps 756 mmHg 42%
    15:00 +25°C° 0 mm 2 mps 755 mmHg 40%
    16:00 +24°C° 0 mm 2 mps 755 mmHg 46%
    17:00 +21°C° 0 mm 2 mps 754 mmHg 52%
    18:00 +20°C° 0 mm 2 mps 754 mmHg 58%
    19:00 +19°C° 0 mm 2 mps 754 mmHg 61%
    20:00 +17°C° 0 mm 2 mps 754 mmHg 65%
    21:00 +16°C° 0 mm 2 mps 754 mmHg 69%
    22:00 +15°C° 0 mm 2 mps 753 mmHg 71%
    23:00 +15°C° 0 mm 2 mps 753 mmHg 73%

    Tomorrow, 22 April, Monday

    Time Temperature Precipitation Wind Pressure Humidity
    00:00 +14°C° 0 mm 2 mps 753 mmHg 75%
    01:00 +14°C° 0 mm 2 mps 752 mmHg 74%
    02:00 +13°C° 0 mm 2 mps 751 mmHg 74%
    03:00 +13°C° 0 mm 2 mps 751 mmHg 73%
    04:00 +13°C° 0 mm 2 mps 750 mmHg 73%
    05:00 +13°C° 0 mm 2 mps 750 mmHg 72%
    06:00 +13°C° 0 mm 2 mps 750 mmHg 72%
    07:00 +14°C° 0 mm 3 mps 749 mmHg 68%
    08:00 +16°C° 0 mm 3 mps 749 mmHg 64%
    09:00 +18°C° 0 mm 4 mps 749 mmHg 60%
    10:00 +19°C° 0 mm 4 mps 748 mmHg 57%
    11:00 +21°C° 0 mm 4 mps 748 mmHg 54%
    12:00 +22°C° 0 mm 4 mps 747 mmHg 51%
    13:00 +23°C° 0 mm 4 mps 747 mmHg 49%
    14:00 +24°C° 0 mm 3 mps 746 mmHg 47%
    15:00 +24°C° 0 mm 3 mps 746 mmHg 45%
    16:00 +22°C° 0 mm 3 mps 745 mmHg 49%
    17:00 +21°C° 0 mm 3 mps 745 mmHg 53%
    18:00 +20°C° 0 mm 2 mps 744 mmHg 57%
    19:00 +19°C° 0 mm 3 mps 744 mmHg 60%
    20:00 +17°C° 0 mm 3 mps 744 mmHg 63%
    21:00 +16°C° 0 mm 3 mps 744 mmHg 66%
    22:00 +14°C° 0 mm 3 mps 744 mmHg 66%
    23:00 +14°C° 0 mm 3 mps 743 mmHg 67%

    Day after tomorrow, 23 April, Tuesday

    Time Temperature Precipitation Wind Pressure Humidity
    00:00 +13°C° 0 mm 3 mps 743 mmHg 68%
    01:00 +12°C° 0 mm 3 mps 743 mmHg 70%
    02:00 +12°C° 0 mm 3 mps 742 mmHg 72%
    03:00 +11°C° 0 mm 3 mps 742 mmHg 74%
    04:00 +11°C° 0 mm 3 mps 742 mmHg 74%
    05:00 +11°C° 0 mm 3 mps 742 mmHg 74%
    06:00 +11°C° 0 mm 3 mps 742 mmHg 74%
    07:00 +12°C° 0 mm 3 mps 742 mmHg 70%
    08:00 +14°C° 0 mm 3 mps 742 mmHg 66%
    09:00 +16°C° 0 mm 3 mps 742 mmHg 62%
    10:00 +17°C° 0 mm 3 mps 742 mmHg 59%
    11:00 +19°C° 0 mm 3 mps 741 mmHg 56%
    12:00 +20°C° 0 mm 3 mps 741 mmHg 53%
    13:00 +20°C° 0 mm 3 mps 741 mmHg 52%
    14:00 +21°C° 0 mm 3 mps 741 mmHg 52%
    15:00 +21°C° 0 mm 3 mps 740 mmHg 51%
    16:00 +20°C° 0 mm 3 mps 740 mmHg 55%
    17:00 +19°C° 0 mm 2 mps 740 mmHg 60%
    18:00 +19°C° 0 mm 2 mps 740 mmHg 64%
    19:00 +17°C° 0 mm 2 mps 740 mmHg 68%
    20:00 +16°C° 0 mm 1 mps 740 mmHg 71%
    21:00 +15°C° 0 mm 1 mps 740 mmHg 75%
    22:00 +15°C° 0 mm 2 mps 740 mmHg 77%
    23:00 +15°C° 0 mm 2 mps 740 mmHg 79%

    24 April, Wednesday

    Time Temperature Precipitation Wind Pressure Humidity
    00:00 +15°C° 0 mm 2 mps 740 mmHg 80%
    01:00 +14°C° 0 mm 2 mps 740 mmHg 84%
    02:00 +13°C° 0 mm 3 mps 740 mmHg 88%
    03:00 +12°C° 0 mm 3 mps 739 mmHg 92%
    04:00 +12°C° 0 mm 3 mps 740 mmHg 91%
    05:00 +12°C° 0 mm 4 mps 740 mmHg 91%
    06:00 +12°C° 0 mm 4 mps 740 mmHg 91%
    07:00 +13°C° 0.1 mm 4 mps 741 mmHg 89%
    08:00 +13°C° 0.1 mm 4 mps 742 mmHg 86%
    09:00 +13°C° 0.1 mm 5 mps 743 mmHg 84%
    10:00 +14°C° 0.1 mm 5 mps 743 mmHg 78%
    11:00 +15°C° 0.1 mm 4 mps 743 mmHg 73%
    12:00 +17°C° 0.1 mm 4 mps 744 mmHg 67%
    13:00 +15°C° 0.2 mm 4 mps 744 mmHg 68%
    14:00 +15°C° 0.2 mm 4 mps 744 mmHg 69%
    15:00 +14°C° 0.2 mm 4 mps 744 mmHg 70%
    16:00 +14°C° 0.3 mm 4 mps 744 mmHg 72%
    17:00 +13°C° 0.3 mm 4 mps 744 mmHg 75%
    18:00 +12°C° 0.3 mm 3 mps 744 mmHg 78%
    19:00 +12°C° 0 mm 4 mps 744 mmHg 81%
    20:00 +11°C° 0 mm 4 mps 745 mmHg 84%
    21:00 +10°C° 0 mm 4 mps 745 mmHg 87%
    22:00 +9°C° 0 mm 5 mps 745 mmHg 88%
    23:00 +8°C° 0 mm 5 mps 745 mmHg 88%

    25 April, Thursday

    Time Temperature Precipitation Wind Pressure Humidity
    00:00 +8°C° 0 mm 6 mps 745 mmHg 88%
    01:00 +8°C° 0 mm 6 mps 745 mmHg 87%
    02:00 +8°C° 0 mm 6 mps 744 mmHg 86%
    03:00 +8°C° 0 mm 6 mps 744 mmHg 84%
    04:00 +8°C° 1.1 mm 7 mps 744 mmHg 85%
    05:00 +7°C° 1.1 mm 8 mps 744 mmHg 85%
    06:00 +8°C° 1.1 mm 9 mps 744 mmHg 85%
    07:00 +10°C° 0.2 mm 8 mps 744 mmHg 83%
    08:00 +10°C° 0.2 mm 8 mps 745 mmHg 82%
    09:00 +11°C° 0.2 mm 7 mps 745 mmHg 80%
    10:00 +11°C° 0.5 mm 7 mps 746 mmHg 80%
    11:00 +11°C° 0.5 mm 6 mps 746 mmHg 81%
    12:00 +11°C° 0.5 mm 6 mps 747 mmHg 81%
    13:00 +11°C° 0.4 mm 6 mps 747 mmHg 80%
    14:00 +12°C° 0.4 mm 5 mps 747 mmHg 80%
    15:00 +12°C° 0.4 mm 5 mps 747 mmHg 80%
    16:00 +10°C° 0.2 mm 5 mps 747 mmHg 80%
    17:00 +10°C° 0.2 mm 6 mps 747 mmHg 81%
    18:00 +10°C° 0.2 mm 6 mps 748 mmHg 82%
    19:00 +9°C° 0 mm 6 mps 748 mmHg 82%
    20:00 +9°C° 0 mm 6 mps 749 mmHg 82%
    21:00 +8°C° 0 mm 6 mps 749 mmHg 82%
    22:00 +8°C° 0 mm 6 mps 749 mmHg 82%
    23:00 +7°C° 0 mm 6 mps 749 mmHg 83%

    26 April, Friday

    Time Temperature Precipitation Wind Pressure Humidity
    00:00 +7°C° 0 mm 6 mps 750 mmHg 83%
    01:00 +7°C° 0 mm 6 mps 750 mmHg 84%
    02:00 +6°C° 0 mm 7 mps 750 mmHg 84%
    03:00 +6°C° 0 mm 7 mps 750 mmHg 85%
    04:00 +6°C° 0 mm 7 mps 750 mmHg 85%
    05:00 +6°C° 0 mm 8 mps 750 mmHg 85%
    06:00 +6°C° 0 mm 8 mps 750 mmHg 85%
    07:00 +7°C° 0 mm 8 mps 751 mmHg 82%
    08:00 +7°C° 0 mm 8 mps 751 mmHg 80%
    09:00 +9°C° 0 mm 8 mps 751 mmHg 78%
    10:00 +10°C° 0.3 mm 8 mps 751 mmHg 77%
    11:00 +10°C° 0.3 mm 9 mps 752 mmHg 77%
    12:00 +11°C° 0.3 mm 9 mps 752 mmHg 76%
    13:00 +12°C° 0.2 mm 9 mps 752 mmHg 73%
    14:00 +12°C° 0.2 mm 9 mps 753 mmHg 70%
    15:00 +13°C° 0.2 mm 9 mps 753 mmHg 67%
    16:00 +12°C° 0 mm 9 mps 754 mmHg 70%
    17:00 +11°C° 0 mm 8 mps 755 mmHg 73%
    18:00 +10°C° 0 mm 7 mps 755 mmHg 76%
    19:00 +9°C° 0 mm 6 mps 756 mmHg 77%
    20:00 +8°C° 0 mm 6 mps 757 mmHg 79%
    21:00 +7°C° 0 mm 5 mps 757 mmHg 80%
    22:00 +7°C° 0 mm 5 mps 757 mmHg 80%
    23:00 +7°C° 0 mm 5 mps 758 mmHg 80%
    Show more